Simultaneous Nadir Overpasses (SNOs) Predictions

Prediction of SNOs between NOAA-15 and METOP-C Satellite Orbit:

Table of predicted SNOs for the next 14.0 days since TLE Epoch: 9/21/2024
Index Date (NOAA-15) Time (NOAA-15) Lat,Lon (NOAA-15) SZA (NOAA-15 ) Date (METOP-C) Time (METOP-C) Lat,Lon (METOP-C) SZA (METOP-C ) Distance(km) Time Diff (sec)
1 09/28/2024 09:15:00 -81.02,-100.55 94.58 09/28/2024 09:13:47 -81.04,-100.51 94.60 1.80 73
2 09/28/2024 10:05:27 81.04, 66.55 85.42 09/28/2024 10:04:29 81.02, 66.47 85.38 2.06 58
3 09/28/2024 10:56:00 -81.04,-126.04 94.57 09/28/2024 10:55:09 -81.03,-125.99 94.59 0.89 51
4 09/28/2024 11:46:26 81.03, 41.41 85.46 09/28/2024 11:45:50 81.03, 41.35 85.44 1.06 36
5 09/28/2024 12:36:59 -81.03,-151.17 94.53 09/28/2024 12:36:30 -81.04,-151.11 94.53 1.62 29
6 09/28/2024 13:27:25 81.03, 16.28 85.49 09/28/2024 13:27:11 81.04, 16.24 85.49 1.89 14
7 09/28/2024 14:17:59 -81.04,-176.66 94.52 09/28/2024 14:17:52 -81.04,-176.60 94.52 1.33 7
8 09/28/2024 15:08:25 81.04, -9.21 85.50 09/28/2024 15:08:33 81.04, -9.25 85.50 0.78 8
9 09/28/2024 15:58:58 -81.04, 158.21 94.48 09/28/2024 15:59:13 -81.04, 158.28 94.46 1.56 15
10 09/28/2024 16:49:24 81.03, -34.34 85.54 09/28/2024 16:49:54 81.04, -34.37 85.56 1.35 30
11 09/28/2024 17:39:58 -81.05, 132.72 94.47 09/28/2024 17:40:35 -81.04, 132.80 94.46 1.78 37
12 09/28/2024 18:30:24 81.05, -59.84 85.55 09/28/2024 18:31:16 81.04, -59.86 85.57 0.85 52
13 09/28/2024 19:20:57 -81.04, 107.59 94.44 09/28/2024 19:21:56 -81.05, 107.68 94.40 1.66 59



Historial Predications of SNOs between NOAA-15 and METOP-C
